Change the Weather History Date:

Tuesday, December 3, 2013

  Actual Average Record
Temperature  
Mean Temperature 18 °F -  
Max Temperature 22 °F -17 °F 48 °F (1998)
Min Temperature 15 °F -30 °F -4 °F (2004)
Degree Days  
Heating Degree Days 46    
Moisture  
Dew Point 16 °F    
Average Humidity 84    
Maximum Humidity 100    
Minimum Humidity 65    
Precipitation  
Precipitation 0.00 in 0.01 in - ()
Sea Level Pressure  
Sea Level Pressure 30.07 in    
Wind  
Wind Speed 17 mph ()    
Max Wind Speed 24 mph    
Max Gust Speed 32 mph    
Visibility 6.2 miles    
Events Snow    
Averages and records for this station are not official NWS values.
T = Trace of Precipitation, MM = Missing Value Source: Averaged Metar Reports

Daily Weather History Graph

Daily Weather History Graph

Search for Another Location

Airport or City:

Trip Planner

Search our weather history database for the weather conditions in past years. The results will help you decide how hot, cold, wet, or windy it might be!

Date:

Astronomy

Dec. 03, 2013 Rise Set
Actual Time 8:30 AM EST 5:03 PM EST
Civil Twilight 7:54 AM EST 5:40 PM EST
Nautical Twilight 7:14 AM EST 6:19 PM EST
Astronomical Twilight 6:37 AM EST 6:57 PM EST
Moon 8:57 AM EST (12/3) 6:09 PM EST (12/3)
Length of Visible Light 9h 45m
Length of Day
8h 33m
New Moon, 1% of the Moon is Illuminated
Dec 3
New Moon
Dec 9
First Quarter
Dec 17
Full
Dec 25
Last Quarter
Jan 1
New

Hourly Weather History & Observations

Time (EST) Temp. Windchill Dew Point Humidity Pressure Visibility Wind Dir Wind Speed Gust Speed Precip Events Conditions
12:00 AM 24.8 °F 10.7 °F 24.8 °F 100% 29.96 in 0.8 mi NE 19.6 mph - N/A Snow Light Snow
1:00 AM 26 °F - 24 °F 90% 29.96 in 1 mi ENE 23.0 mph - - Snow Light Snow
1:00 AM 24.8 °F 10.3 °F 24.8 °F 100% 29.95 in 0.8 mi ENE 20.7 mph 32.2 mph N/A Snow Light Snow
2:00 AM 24.8 °F 10.3 °F 24.8 °F 100% 29.96 in 1.5 mi ENE 20.7 mph 28.8 mph N/A Snow Light Snow
3:00 AM 24.8 °F 10.0 °F 24.8 °F 100% 29.98 in 1.5 mi ENE 21.9 mph 29.9 mph N/A Snow Light Snow
3:19 AM 24.8 °F 10.7 °F 23.0 °F 93% 29.98 in 0.8 mi NE 19.6 mph 28.8 mph N/A Snow Light Snow
4:00 AM 24.8 °F 9.3 °F 23.0 °F 93% 29.99 in 1.0 mi ENE 24.2 mph 31.1 mph N/A Snow Light Snow
5:00 AM 24.8 °F 10.0 °F 23.0 °F 93% 30.00 in 1.5 mi ENE 21.9 mph 31.1 mph N/A Snow Light Snow
6:00 AM 23.0 °F 7.2 °F 21.2 °F 93% 30.01 in 3.0 mi ENE 23.0 mph 29.9 mph N/A Snow Light Snow
7:00 AM 22 °F - 20 °F 86% 30.03 in 3 mi ENE 21.9 mph - - Snow Light Snow
7:00 AM 21.2 °F 5.2 °F 19.4 °F 93% 30.03 in 3.0 mi ENE 21.9 mph 31.1 mph N/A Snow Light Snow
7:29 AM 21.2 °F 4.5 °F 19.4 °F 93% 30.05 in 2.5 mi ENE 24.2 mph 31.1 mph N/A Snow Light Snow
7:47 AM 21.2 °F 5.2 °F 17.6 °F 86% 30.05 in 4.0 mi ENE 21.9 mph 31.1 mph N/A Snow Light Snow
8:00 AM 21.2 °F 5.6 °F 17.6 °F 86% 30.05 in 4.0 mi ENE 20.7 mph 27.6 mph N/A Snow Light Snow
9:00 AM 19.4 °F 2.5 °F 15.8 °F 86% 30.08 in 4.0 mi ENE 23.0 mph 29.9 mph N/A Snow Light Snow
10:00 AM 17.6 °F 1.3 °F 14.0 °F 86% 30.11 in 8.0 mi ENE 19.6 mph 26.5 mph N/A Snow Light Snow
11:00 AM 17.6 °F 2.7 °F 14.0 °F 86% 30.12 in 5.0 mi ENE 16.1 mph 24.2 mph N/A Snow Light Snow
12:00 PM 19.4 °F 3.6 °F 14.0 °F 80% 30.13 in 10.0 mi NE 19.6 mph - N/A Snow Light Snow
1:00 PM 18 °F - 13 °F 74% 30.13 in 10 mi ENE 17.3 mph - - Snow Light Snow
1:00 PM 17.6 °F 1.7 °F 14.0 °F 86% 30.12 in 10.0 mi ENE 18.4 mph - N/A Snow Light Snow
2:00 PM 19.4 °F 6.6 °F 12.2 °F 74% 30.12 in 15.0 mi ENE 12.7 mph 21.9 mph N/A Snow Light Snow
3:00 PM 17.6 °F 3.2 °F 12.2 °F 79% 30.10 in 10.0 mi NE 15.0 mph 21.9 mph N/A Snow Light Snow
4:00 PM 17.6 °F 3.7 °F 10.4 °F 73% 30.11 in 10.0 mi NE 13.8 mph - N/A   Overcast
5:00 PM 17.6 °F 5.0 °F 10.4 °F 73% 30.11 in 10.0 mi NE 11.5 mph - N/A   Overcast
6:00 PM 17.6 °F 7.3 °F 10.4 °F 73% 30.12 in 10.0 mi NNE 8.1 mph - N/A   Overcast
7:00 PM 16 °F - 9 °F 65% 30.13 in 10 mi NE 8.1 mph - -   Overcast
7:00 PM 15.8 °F 3.4 °F 8.6 °F 73% 30.13 in 10.0 mi NNE 10.4 mph - N/A   Overcast
7:19 PM 15.8 °F 4.2 °F 8.6 °F 73% 30.12 in 10.0 mi NE 9.2 mph - N/A Snow Light Snow
8:00 PM 15.8 °F 6.1 °F 10.4 °F 79% 30.14 in 8.0 mi NNE 6.9 mph - N/A Snow Light Snow
9:00 PM 15.8 °F 7.2 °F 10.4 °F 79% 30.12 in 10.0 mi NNE 5.8 mph - N/A Snow Light Snow
10:00 PM 15.8 °F 7.2 °F 10.4 °F 79% 30.14 in 10.0 mi North 5.8 mph - N/A Snow Light Snow
11:00 PM 15.8 °F 4.2 °F 10.4 °F 79% 30.12 in 10.0 mi NE 9.2 mph - N/A Snow Light Snow